Regional Weather Roundup
Issued by NWS

Home | Current Version | Previous Version | Text Only | Print | Product List | Glossary On
Versions: 1 2 3 4 5 6 7 8 9 10 11 12 13 14 15 16 17 18 19 20 21 22 23 24 25 26 27 28 29 30 31 32 33 34 35 36 37 38 39 40 41 42 43 44 45 46 47 48 49 50
000
ASPQ40 PGUM 060114
RWRPQ
WEATHER ROUNDUP FOR THE MARIANAS AND MICRONESIA
NATIONAL WEATHER SERVICE TIYAN GU
1100 AM CHST MON JUL 06 2015

GUZ001>004-060200-
MARIANA ISLANDS-

CITY           SKY/WX    TMP DP  RH WIND       PRES   REMARKS
GUAM AIRPORT   PTSUNNY   82  79  89 S9G18     29.66R HX  93
ANDERSEN AFB   PTSUNNY   82  77  83 S24       29.67R HX  91
ROTA AIRPORT   NOT AVBL
TINIAN AP      NOT AVBL
SAIPAN AP      MOSUNNY   86  81  84 S20G33    29.64R HX 102

$$

PMZ161-060200-
REPUBLIC OF PALAU-

CITY           SKY/WX    TMP DP  RH WIND       PRES   REMARKS
KOROR AP       PTSUNNY   86  75  70 SW15G22   29.80F HX  95
KOROR WSO      PTSUNNY   86  75  70 W3        29.80S HX  95

$$

PMZ171>174-060200-
FEDERATED STATES OF MICRONESIA-

CITY           SKY/WX    TMP DP  RH WIND       PRES   REMARKS
YAP AIRPORT    CLOUDY    82  75  78 SW17G28   29.74S
CHUUK AP       CLOUDY    86  79  79 SW8       29.79  HX  99
POHNPEI AP     CLOUDY    82  77  83 NW6       29.77S HX  91
POHNPEI WSO    CLOUDY    84  77  79 SW6       29.81  HX  94
KOSRAE AP      PTSUNNY   88  77  70 S14       29.80F HX 100

$$

PMZ181-060200-
REPUBLIC OF THE MARSHALL ISLANDS-

CITY           SKY/WX    TMP DP  RH WIND       PRES   REMARKS
KWAJALEIN AP   SUNNY     86  75  70 S6        29.83F HX  95
MAJURO AP      NOT AVBL
MAJURO WSO     PTSUNNY   86  79  79 S12       29.82F HX  99

$$




USA.gov is the U.S. government's official web portal to all federal, state and local government web resources and services.